Flag for USA

Past Weather in Memphis, Tennessee, USA — Yesterday and Last 2 Weeks

Now
86 °F

Passing clouds.


Feels Like: 94 °F
Forecast: 93 / 72 °F
Wind: No wind

Location: Memphis International Airport

Current Time: Jul 11, 2020 at 9:25:43 am

Latest Report: Jul 11, 2020 at 8:54 am


Visibility: 10 mi

Pressure: 30.02 "Hg

Humidity: 67%

Dew Point: 74 °F

Location of MemphisLocation

Past Weather in Memphis — Graph

°F

Memphis Temperature Yesterday

Maximum temperature yesterday: 91 °F (at 3:54 pm)
Minimum temperature yesterday: 73 °F (at 3:54 am)
Average temperature yesterday: 81 °F

High & Low Weather Summary for the Past Weeks

 TemperatureHumidityPressure
High94 °F (Jul 3, 1:54 pm)97% (Jun 26, 11:34 am)30.16 "Hg (Jun 26, 11:34 am)
Low72 °F (Jun 26, 7:21 am)49% (Jul 5, 5:00 pm)29.76 "Hg (Jul 1, 6:54 pm)
Average81 °F77%29.94 "Hg
* Reported Jun 26 7:21 am — Jul 11 7:54 am, Memphis. Weather by CustomWeather, © 2020

Note: Actual official high and low records may vary slightly from our data, if they occured in-between our weather recording intervals... More about our weather records

Memphis Weather History for the Previous 24 Hours

Scroll right to see more
 ConditionsComfort  
Time TempWeatherWind HumidityBarometerVisibility
7:54 am
Sat, Jul 11
81 °FPassing clouds.No wind79%30.02 "Hg10 mi
6:54 am76 °FPassing clouds.5 mph91%30.01 "Hg10 mi
5:54 am76 °FPassing clouds.No wind88%30.00 "Hg10 mi
4:54 am76 °FPassing clouds.No wind88%29.99 "Hg10 mi
3:54 am76 °FPassing clouds.No wind88%29.98 "Hg10 mi
2:54 am77 °FPassing clouds.No wind82%29.96 "Hg10 mi
1:54 am76 °FClear.3 mph85%29.95 "Hg10 mi
12:54 am77 °FPassing clouds.No wind82%29.96 "Hg10 mi
11:54 pm
Fri, Jul 10
79 °FPassing clouds.No wind77%29.96 "Hg10 mi
10:54 pm79 °FPassing clouds.No wind74%29.96 "Hg10 mi
9:54 pm83 °FPassing clouds.3 mph63%29.96 "Hg10 mi
8:54 pm83 °FPassing clouds.5 mph65%29.96 "Hg10 mi
7:54 pm86 °FPassing clouds.6 mph59%29.96 "Hg10 mi
6:54 pm89 °FPartly sunny.10 mph52%29.96 "Hg10 mi
5:54 pm90 °FPartly sunny.8 mph52%29.96 "Hg10 mi
4:54 pm90 °FPartly sunny.10 mph50%29.97 "Hg10 mi
3:54 pm91 °FPassing clouds.8 mph54%29.97 "Hg10 mi
2:54 pm90 °FPassing clouds.10 mph56%29.98 "Hg10 mi
1:54 pm90 °FScattered clouds.3 mph57%29.99 "Hg10 mi
12:54 pm90 °FPassing clouds.8 mph61%29.99 "Hg10 mi
11:54 am87 °FPassing clouds.7 mph67%29.99 "Hg10 mi
10:54 am86 °FPassing clouds.6 mph67%29.98 "Hg10 mi
9:54 am83 °FScattered clouds.5 mph72%29.98 "Hg10 mi
Weather by CustomWeather, © 2020

See weather overview